DELTA 1 DEB, 7038

Orbit data source: Space-Track

DELTA 1 DEB, 7038 is space debris in SSO originally from a launch on Tue, 06 Nov 1973 UTC launched from the Air Force Western Test Range (AFWTR). Debris objects in space refer to the collection of defunct objects orbiting the Earth. Examples of debris include non-operational satellites, rocket bodies, and fragments generated from explosions, collisions, or faulty payload assembly.

Loading next visibility...
DELTA 1 DEB details
Identifier
7038, 1973-086AE
Orbit
SSO
Last TLE update9 hours ago
Origin
Flag of USGSFC (US)
ManufacturerUnknown
MissionSpacecraft
Bus & MotorUnknown
MassUnknown
Launch date (UTC)
1973-11-06 (51 years ago)
Launch vehicleUnknown
Launch site
Air Force Western Test Range (AFWTR)
Object type
Payload
Rocket body
Debris
Shape & HBRUnknown
Radar Cross SectionMedium (>0.1 m² and <1 m²)

Expand to show TLE details & history

TLE from 9 hours ago
0 DELTA 1 DEB
1  7038U 73086AE  24361.10675413  .00000045  00000-0  77775-3 0  9990
2  7038 101.9118 202.5202 0127665  37.9692  83.2534 12.24303963280960
Epoch: 2024-12-26T02:33Z
Definitive object data (Epoch: 2024-12-26T02:33:43.556Z)
Latitude55.53949°
Longitude-93.19026°
Altitude1,572.209 km
Speed7.092 km/s
True Right ascension02h 41m 19s
True Declination55° 23' 43"
Sunlit
Object was in full shadow at TLE epoch
Visualization TLE readout
Latitude-60.1397°
Longitude90.79512°
Altitude1,612.378 km
Speed7.057 km/s
Apparent Right ascension19h 28m 23s
Apparent Declination-66° 41' 37"
Sunlit
Object is in daylight
Visualization observer readout
Local Sidereal Time10:43:54
Azimuth150.988° SSE
Elevation-52.08°
Doppler factor1
Orbital elements
Apogee altitude1,672.928 km
Perigee altitude1,469.951 km
Semi-major axis7,949.577 km
Eccentricity0.0127665
Inclination101.9118°
RAAN202.5202°
Arg. of periapsis37.9692°
True anomaly84.70877°
Mean anomaly83.2534°
Eccentric anomaly83.98083°
Mean motion3.06215 °/min
BSTAR0.00077775
Orbital period117.56 mins
Loading maneuver chart data...
Loading historical data...
Loading historical data...
Loading historical data...
Loading historical data...
Loading historical data...
Loading historical data...
Loading historical data...

DELTA 1 DEB Visibility forecast

Observer location: undefined°, undefined

Span
Click to sort rows by Start time (UTC) header in descending order
Start Az.
Max El. time (UTC)
Max El. Az.
Max El.
End time (UTC)
End Az.
12 mins2024-12-26 11:52:34.292Z105.189° ESE2024-12-26 11:58:34.292Z52.427° ENE25.321°2024-12-26 12:04:34.292Z3.619° NNE
14 mins2024-12-26 13:46:34.292Z175.356° S2024-12-26 13:52:34.292Z235.853° WSW42.491°2024-12-26 14:00:34.292Z336.338° NNW
17 mins2024-12-27 02:03:34.292Z26.539° NE2024-12-27 02:11:34.292Z98.617° ESE39.826°2024-12-27 02:20:34.292Z180.183° SSW
14 mins2024-12-27 04:00:34.292Z356.815° N2024-12-27 04:06:34.292Z303.292° NW30.561°2024-12-27 04:14:34.292Z239.928° WSW
|